STARLINK-34970, 65450

Orbit data source: Space-Track

STARLINK-34970, 65450 is a payload satellite owned by SpaceX/Seattle (US) in SSO that was launched on Wed, 03 Sep 2025 UTC via an FALCON 9 launch vehicle from the Air Force Western Test Range (AFWTR). Payload-class satellites include a variety of spacecraft equipped with specific instruments for various scientific and technological missions. These include communications satellites like Starlink; space stations such as the ISS; scientific satellites like the Hubble; Earth observation satellites from companies like Planet Labs, Umbra, and HawkEye 360; GPS; miniature CubeSats for education and research; and military/defense satellites.

Loading next visibility...
Identifier
65450, 2025-194S
Orbit
SSO
Country
Flag of USUS
Related business
Manufacturer
SpaceX/Seattle
Mission
Operational Commercial Communications
Bus & Motor
STARLINK V2MO, Unknown motor
Mass
575 kg wet, ~530 kg dry
Launch date (UTC)
2025-09-03 (10 months ago)
Launch vehicle
FALCON 9
Launch site
Air Force Western Test Range (AFWTR)
Object type
Payload
Rocket body
Debris
Shape & HBR
Box + 2 Pan, 17.7 m
Radar Cross Section
36.964 m², Large (>1 m²)

Expand to show TLE details & history
Last TLE update: 13 hours ago

TLE from 13 hours ago
0 STARLINK-34970
1 65450U 25194S   26171.30294179  .00014990  00000-0  10409-2 0  9992
2 65450  97.3396  24.3694 0002240  96.1590 263.9893 15.05643971 45083
Epoch: 2026-06-20T07:16Z
TLE epoch observation values (Epoch: 2026-06-20T07:16:14.170Z)
Latitude
-0.00001°
Longitude
6.79085°
Altitude
552.765 km
Speed
7.585 km/s
True Right ascension
01h 37m 28s
True Declination
0° 00' 00"
Sunlit
Object was in daylight at epoch
Visualization orbit readout
Latitude
Unknown
Longitude
Unknown
Altitude
Unknown
Speed
Unknown
Apparent Right ascension
Unknown
Apparent Declination
Unknown
Sunlit
N/A
Visualization observer readout
Local Sidereal Time
07:16:34
Azimuth
Unknown
Elevation
Unknown
Doppler factor
Unknown
Orbital elements
Apogee altitude
548.063 km
Perigee altitude
544.961 km
Semi-major axis
6,924.649 km
Eccentricity
0.00022
Inclination
97.3396°
RAAN
24.3694°
Arg. of periapsis
96.159°
True anomaly
263.96377°
Mean anomaly
263.9893°
Eccentric anomaly
263.97654°
Mean motion
3.76657 °/min
Orbital period
95.58 mins
BSTAR
0.0010409
Loading maneuver chart data...
Computing Atmospheric mass density...
Loading historical data...
Loading historical data...
Loading historical data...
Loading historical data...
Loading historical data...
Loading historical data...
Loading historical data...

Documentation

Showing up to 5 results
|